Regional Weather Roundup
Issued by NWS

Home | Current Version | Previous Version | Graphics & Text | Print | Product List | Glossary On
Versions: 1 2 3 4 5 6 7 8 9 10 11 12 13 14 15 16 17 18 19 20 21 22 23 24 25 26 27 28 29 30 31 32 33 34 35 36 37 38 39 40 41 42 43 44 45 46 47 48 49 50
000
ASUS43 KDTX 182310
RWRMI
MICHIGAN HOURLY REGIONAL WEATHER ROUNDUP
NATIONAL WEATHER SERVICE DETROIT/PONTIAC MI
600 PM EST SAT JAN 18 2020

NOTE: "FAIR" INDICATES FEW OR NO CLOUDS BELOW 12,000 FEET WITH NO
SIGNIFICANT WEATHER AND/OR OBSTRUCTION TO VISIBILITY.

MIZ047>049-052>055-059>063-066>070-074>076-081>083-190000-
SOUTHEAST LOWER MICHIGAN

CITY           SKY/WX    TMP DP  RH WIND       PRES   REMARKS
ADRIAN         CLOUDY    35  30  82 W18G30    29.68R WCI  24
ALMA           CLOUDY    34  28  80 W16G25    29.58R WCI  23
ANN ARBOR      CLOUDY    35  29  78 W20G31    29.63R WCI  24
BAD AXE        CLOUDY    34  32  94 W17G28    29.46R WCI  23
CARO           CLOUDY    35  30  82 W17G28    29.51R WCI  25
DETROIT CITY   CLOUDY    37  31  78 W17G26    29.60R WCI  27
DETROIT        CLOUDY    36  31  82 W21G30    29.63R WCI  25
FLINT          CLOUDY    36  29  75 W22G29    29.57R WCI  25
GROSSE ILE     CLOUDY    37  31  80 W15G21    29.63R WCI  28
HILLSDALE      CLOUDY    33  29  85 W22G35    29.65R WCI  21
HOWELL         CLOUDY    34  30  85 W15G22    29.60R WCI  24

CITY           SKY/WX    TMP DP  RH WIND       PRES   REMARKS
JACKSON        CLOUDY    34  28  79 SW18G31   29.63R WCI  23
LAMBERTVILLE   CLOUDY    36  32  85 W14G22    29.68R WCI  27
LANSING        CLOUDY    33  28  81 W21G30    29.61R WCI  21
LAPEER         CLOUDY    35  28  76 W22G30    29.54R WCI  23
MASON          CLOUDY    33  29  83 W16G26    29.62R WCI  23
MONROE         CLOUDY    36  32  87 W18G24    29.65R WCI  25
MT. CLEMENS    LGT RAIN  37  36  99 SW15G32   29.56R WCI  27
PONTIAC        LGT SNOW  34  30  85 W22G32    29.57R WCI  22
PORT HOPE        N/A     35  30  82 W10G25    29.43R WCI  27
PORT HURON     CLOUDY    37  32  81 W12G22    29.54R WCI  30
TRI CITIES     CLOUDY    35  26  69 MISG      29.54R
MIDLAND        CLOUDY    34  28  80 W18G24    29.53R WCI  23
TROY           CLOUDY    35  33  92 W12G23    29.61R WCI  27
SAGINAW HB     CLOUDY    34  28  80 W23       29.54R WCI  22
$$
MIZ043>046-050>051-056>058-064>065-071>073-077>080-190000-
SOUTHWEST LOWER MICHIGAN

CITY           SKY/WX    TMP DP  RH WIND       PRES   REMARKS
BATTLE CREEK   FLURRIES  34  30  85 W16G26    29.66R WCI  24
BENTON HARBOR  CLOUDY    29  25  85 W32G51    29.76R WCI  13
BIG RAPIDS     LGT SNOW  31  27  84 W15G24    29.55R WCI  20
COLDWATER      CLOUDY    33  32  96 W21G30    29.68R WCI  22
FREMONT        LGT SNOW  32  32 100 W18G24    29.60R WCI  20
HOLLAND        LGT SNOW  34  30  85 W22G39    29.67R FOG     WCI  22
GRAND RAPIDS   LGT SNOW  33  28  81 W21G28    29.63R WCI  21
IONIA          FLURRIES  32  29  86 W23       29.60R WCI  20
KALAMAZOO      LGT RAIN  35  28  75 W16G40    29.68R WCI  25
LUDINGTON      CLOUDY    32  27  80 W12G29    29.60R WCI  23
MARSHALL       CLOUDY    34  28  80 W18G26    29.65R WCI  23
MOUNT PLEASANT CLOUDY    33  28  79 W17G23    29.54R WCI  22
MUSKEGON       FLURRIES  34  27  75 W17G32    29.64R WCI  23
SOUTH HAVEN    CLOUDY    31  31  99 W20G32    29.72R WCI  19
$$
MIZ016>042-190000-
NORTHERN LOWER MICHIGAN

CITY           SKY/WX    TMP DP  RH WIND       PRES   REMARKS
ALPENA         CLOUDY    31  28  89 W9        29.43R WCI  23
BEAVER ISLAND  FLURRIES  26  23  91 NE5       29.51R WCI  20
BELLAIRE       LGT SNOW  30  27  90 CALM      29.50R
CADILLAC       LGT SNOW  29  27  90 W14       29.48R WCI  18
CHARLEVOIX     LGT SNOW  30  27  87 W8        29.49R WCI  22
FRANKFORT      CLOUDY    32  27  80 W21G28    29.54R WCI  20
GAYLORD        LGT SNOW  27  25  92 W9        29.43R FOG     WCI  18
GRAYLING       LGT SNOW  28  28 100 W7        29.45R FOG     WCI  21
HARBOR SPRINGS CLOUDY    29  29  99 W3        29.47R
HOUGHTON LAKE  CLOUDY    31  26  82 W16G31    29.46R WCI  20
MANISTEE       CLOUDY    32  26  78 W24G35    29.56R WCI  19
OSCODA         CLOUDY    34  32  92 W16       29.43R WCI  23
PELLSTON       FLURRIES  26  23  88 N10       29.48R WCI  16
ROGERS CITY    CLOUDY    30  28  93 W5        29.44R WCI  25
TRAVERSE CITY  LGT SNOW  31  27  85 W6        29.50R FOG     WCI  25
$$
MIZ007>008-015-190000-
EASTERN UPPER MICHIGAN

CITY           SKY/WX    TMP DP  RH WIND       PRES   REMARKS
KINROSS        LGT SNOW  18  14  86 NE8       29.51R FOG     WCI   7
MACKINAC ISLAN FLURRIES  21  21 100 NE17      29.49R WCI   6
NEWBERRY       LGT SNOW  20  19  93 NE7       29.51R WCI  11
S. S. MARIE    LGT SNOW  19  14  81 E6        29.51S WCI  11
MUNISING         N/A     25  23  92 N3        29.52R
$$
MIZ004>006-011>014-085-190000-
CENTRAL UPPER MICHIGAN

CITY           SKY/WX    TMP DP  RH WIND       PRES   REMARKS
MANISTIQUE     FLURRIES  25  24  95 N7        29.51R WCI  18
ESCANABA       FLURRIES  28  26  92 W7        29.54R WCI  21
MENOMINEE      CLOUDY    30  24  78 W8        29.59R WCI  22
SAWYER-GWINN   LGT SNOW  25  23  93 NW5       29.50R WCI  19
$$
MIZ001>003-009>011-084-190000-
WESTERN UPPER MICHIGAN

CITY           SKY/WX    TMP DP  RH WIND       PRES   REMARKS
IRON MOUNTAIN  CLOUDY    27  20  75 NW10      29.54R WCI  17
HOUGHTON       LGT SNOW  27  23  85 NW6       29.55R FOG     WCI  20
COPPER HARBOR    N/A     28  24  85 E12G24    29.58R WCI  18
IRONWOOD       LGT SNOW  25  21  86 W15G21    29.63R FOG     WCI  12
$$

ABBREVIATIONS USED IN REMARKS
   TC - TEMPERATURE IN CELSIUS
  WCI - WIND CHILL INDEX
   HX - HEAT INDEX
  VSB - VISIBILITY





USA.gov is the U.S. government's official web portal to all federal, state and local government web resources and services.